Year,Month,Day,Hour,Minute,Value (Times are PST for temperature in C)
2013,07,14,00,00,13.30
2013,07,14,00,01,13.20
2013,07,14,00,02,13.20
2013,07,14,00,03,13.20
2013,07,14,00,04,13.20
2013,07,14,00,05,13.20
2013,07,14,00,06,13.20
2013,07,14,00,07,13.10
2013,07,14,00,08,13.10
2013,07,14,00,09,13.10
2013,07,14,00,10,13.10
2013,07,14,00,11,13.10
2013,07,14,00,12,13.10
2013,07,14,00,13,13.10
2013,07,14,00,14,13.00
2013,07,14,00,15,13.00
2013,07,14,00,16,13.00
2013,07,14,00,17,13.00
2013,07,14,00,18,13.00
2013,07,14,00,19,12.90
2013,07,14,00,20,12.90
2013,07,14,00,21,12.90
2013,07,14,00,22,12.90
2013,07,14,00,23,12.80
2013,07,14,00,24,12.80
2013,07,14,00,25,12.80
2013,07,14,00,26,12.80
2013,07,14,00,27,12.70
2013,07,14,00,28,12.70
2013,07,14,00,29,12.70
2013,07,14,00,30,12.60
2013,07,14,00,31,12.60
2013,07,14,00,32,12.50
2013,07,14,00,33,12.50
2013,07,14,00,34,12.50
2013,07,14,00,35,12.40
2013,07,14,00,36,12.40
2013,07,14,00,37,12.30
2013,07,14,00,38,12.30
2013,07,14,00,39,12.30
2013,07,14,00,40,12.30
2013,07,14,00,41,12.30
2013,07,14,00,42,12.30
2013,07,14,00,43,12.30
2013,07,14,00,44,12.30
2013,07,14,00,45,12.20
2013,07,14,00,46,12.20
2013,07,14,00,47,12.10
2013,07,14,00,48,12.10
2013,07,14,00,49,12.10
2013,07,14,00,50,12.10
2013,07,14,00,51,12.10
2013,07,14,00,52,12.00
2013,07,14,00,53,12.00
2013,07,14,00,54,12.00
2013,07,14,00,55,12.00
2013,07,14,00,56,12.00
2013,07,14,00,57,12.00
2013,07,14,00,58,12.00
2013,07,14,00,59,12.00
2013,07,14,01,00,11.90
2013,07,14,01,01,11.90
2013,07,14,01,02,11.90
2013,07,14,01,03,11.90
2013,07,14,01,04,11.90
2013,07,14,01,05,11.90
2013,07,14,01,06,11.90
2013,07,14,01,07,11.90
2013,07,14,01,08,11.90
2013,07,14,01,09,11.90
2013,07,14,01,10,11.90
2013,07,14,01,11,12.00
2013,07,14,01,12,12.00
2013,07,14,01,13,12.00
2013,07,14,01,14,12.00
2013,07,14,01,15,12.00
2013,07,14,01,16,12.00
2013,07,14,01,17,12.00
2013,07,14,01,18,12.00
2013,07,14,01,19,12.10
2013,07,14,01,20,12.10
2013,07,14,01,21,12.10
2013,07,14,01,22,12.10
2013,07,14,01,23,12.10
2013,07,14,01,24,12.10
2013,07,14,01,25,12.10
2013,07,14,01,26,12.10
2013,07,14,01,27,12.10
2013,07,14,01,28,12.10
2013,07,14,01,29,12.10
2013,07,14,01,30,12.10
2013,07,14,01,31,12.10
2013,07,14,01,32,12.10
2013,07,14,01,33,12.10
2013,07,14,01,34,12.10
2013,07,14,01,35,12.10
2013,07,14,01,36,12.10
2013,07,14,01,37,12.10
2013,07,14,01,38,12.10
2013,07,14,01,39,12.10
2013,07,14,01,40,12.10
2013,07,14,01,41,12.10
2013,07,14,01,42,12.10
2013,07,14,01,43,12.10
2013,07,14,01,44,12.10
2013,07,14,01,45,12.10
2013,07,14,01,46,12.10
2013,07,14,01,47,12.10
2013,07,14,01,48,12.10
2013,07,14,01,49,12.10
2013,07,14,01,50,12.10
2013,07,14,01,51,12.10
2013,07,14,01,52,12.00
2013,07,14,01,53,12.00
2013,07,14,01,54,12.00
2013,07,14,01,55,11.90
2013,07,14,01,56,11.90
2013,07,14,01,57,11.80
2013,07,14,01,58,11.80
2013,07,14,01,59,11.80
2013,07,14,02,00,11.80
2013,07,14,02,01,11.70
2013,07,14,02,02,11.70
2013,07,14,02,03,11.70
2013,07,14,02,04,11.60
2013,07,14,02,05,11.60
2013,07,14,02,06,11.60
2013,07,14,02,07,11.60
2013,07,14,02,08,11.60
2013,07,14,02,09,11.60
2013,07,14,02,10,11.60
2013,07,14,02,11,11.60
2013,07,14,02,12,11.60
2013,07,14,02,13,11.60
2013,07,14,02,14,11.60
2013,07,14,02,15,11.50
2013,07,14,02,16,11.40
2013,07,14,02,17,11.40
2013,07,14,02,18,11.50
2013,07,14,02,19,11.60
2013,07,14,02,20,11.60
2013,07,14,02,21,11.60
2013,07,14,02,22,11.50
2013,07,14,02,23,11.40
2013,07,14,02,24,11.50
2013,07,14,02,25,11.60
2013,07,14,02,26,11.60
2013,07,14,02,27,11.60
2013,07,14,02,28,11.60
2013,07,14,02,29,11.60
2013,07,14,02,30,11.60
2013,07,14,02,31,11.60
2013,07,14,02,32,11.60
2013,07,14,02,33,11.60
2013,07,14,02,34,11.60
2013,07,14,02,35,11.60
2013,07,14,02,36,11.60
2013,07,14,02,37,11.60
2013,07,14,02,38,11.60
2013,07,14,02,39,11.60
2013,07,14,02,40,11.60
2013,07,14,02,41,11.60
2013,07,14,02,42,11.60
2013,07,14,02,43,11.60
2013,07,14,02,44,11.60
2013,07,14,02,45,11.60
2013,07,14,02,46,11.60
2013,07,14,02,47,11.60
2013,07,14,02,48,11.60
2013,07,14,02,49,11.60
2013,07,14,02,50,11.60
2013,07,14,02,51,11.60
2013,07,14,02,52,11.60
2013,07,14,02,53,11.60
2013,07,14,02,54,11.60
2013,07,14,02,55,11.60
2013,07,14,02,56,11.60
2013,07,14,02,57,11.60
2013,07,14,02,58,11.60
2013,07,14,02,59,11.60
2013,07,14,03,00,11.50
2013,07,14,03,01,11.40
2013,07,14,03,02,11.40
2013,07,14,03,03,11.40
2013,07,14,03,04,11.40
2013,07,14,03,05,11.40
2013,07,14,03,06,11.40
2013,07,14,03,07,11.40
2013,07,14,03,08,11.30
2013,07,14,03,09,11.30
2013,07,14,03,10,11.30
2013,07,14,03,11,11.30
2013,07,14,03,12,11.20
2013,07,14,03,13,11.20
2013,07,14,03,14,11.20
2013,07,14,03,15,11.20
2013,07,14,03,16,11.10
2013,07,14,03,17,11.10
2013,07,14,03,18,11.10
2013,07,14,03,19,11.10
2013,07,14,03,20,11.10
2013,07,14,03,21,11.10
2013,07,14,03,22,11.10
2013,07,14,03,23,11.00
2013,07,14,03,24,10.90
2013,07,14,03,25,10.90
2013,07,14,03,26,10.90
2013,07,14,03,27,10.90
2013,07,14,03,28,10.90
2013,07,14,03,29,10.80
2013,07,14,03,30,10.80
2013,07,14,03,31,10.80
2013,07,14,03,32,10.70
2013,07,14,03,33,10.70
2013,07,14,03,34,10.70
2013,07,14,03,35,10.70
2013,07,14,03,36,10.60
2013,07,14,03,37,10.60
2013,07,14,03,38,10.60
2013,07,14,03,39,10.60
2013,07,14,03,40,10.60
2013,07,14,03,41,10.60
2013,07,14,03,42,10.60
2013,07,14,03,43,10.60
2013,07,14,03,44,10.60
2013,07,14,03,45,10.60
2013,07,14,03,46,10.60
2013,07,14,03,47,10.60
2013,07,14,03,48,10.60
2013,07,14,03,49,10.60
2013,07,14,03,50,10.60
2013,07,14,03,51,10.60
2013,07,14,03,52,10.60
2013,07,14,03,53,10.60
2013,07,14,03,54,10.60
2013,07,14,03,55,10.60
2013,07,14,03,56,10.60
2013,07,14,03,57,10.60
2013,07,14,03,58,10.60
2013,07,14,03,59,10.60
2013,07,14,04,00,10.60
2013,07,14,04,01,10.60
2013,07,14,04,02,10.60
2013,07,14,04,03,10.60
2013,07,14,04,04,10.60
2013,07,14,04,05,10.60
2013,07,14,04,06,10.60
2013,07,14,04,07,10.60
2013,07,14,04,08,10.60
2013,07,14,04,09,10.60
2013,07,14,04,10,10.60
2013,07,14,04,11,10.60
2013,07,14,04,12,10.50
2013,07,14,04,13,10.40
2013,07,14,04,14,10.40
2013,07,14,04,15,10.40
2013,07,14,04,16,10.40
2013,07,14,04,17,10.40
2013,07,14,04,18,10.40
2013,07,14,04,19,10.40
2013,07,14,04,20,10.40
2013,07,14,04,21,10.40
2013,07,14,04,22,10.40
2013,07,14,04,23,10.40
2013,07,14,04,24,10.40
2013,07,14,04,25,10.40
2013,07,14,04,26,10.40
2013,07,14,04,27,10.40
2013,07,14,04,28,10.40
2013,07,14,04,29,10.40
2013,07,14,04,30,10.40
2013,07,14,04,31,10.40
2013,07,14,04,32,10.40
2013,07,14,04,33,10.40
2013,07,14,04,34,10.40
2013,07,14,04,35,10.40
2013,07,14,04,36,10.40
2013,07,14,04,37,10.40
2013,07,14,04,38,10.40
2013,07,14,04,39,10.40
2013,07,14,04,40,10.40
2013,07,14,04,41,10.40
2013,07,14,04,42,10.40
2013,07,14,04,43,10.30
2013,07,14,04,44,10.30
2013,07,14,04,45,10.30
2013,07,14,04,46,10.30
2013,07,14,04,47,10.20
2013,07,14,04,48,10.20
2013,07,14,04,49,10.20
2013,07,14,04,50,10.10
2013,07,14,04,51,10.10
2013,07,14,04,52,10.10
2013,07,14,04,53,10.10
2013,07,14,04,54,10.10
2013,07,14,04,55,10.10
2013,07,14,04,56,10.00
2013,07,14,04,57,9.90
2013,07,14,04,58,9.90
2013,07,14,04,59,9.90
2013,07,14,05,00,9.90
2013,07,14,05,01,9.90
2013,07,14,05,02,9.90
2013,07,14,05,03,9.90
2013,07,14,05,04,9.90
2013,07,14,05,05,9.90
2013,07,14,05,06,9.90
2013,07,14,05,07,9.90
2013,07,14,05,08,9.90
2013,07,14,05,09,9.90
2013,07,14,05,10,9.90
2013,07,14,05,11,9.90
2013,07,14,05,12,9.90
2013,07,14,05,13,9.90
2013,07,14,05,14,9.90
2013,07,14,05,15,9.90
2013,07,14,05,16,9.90
2013,07,14,05,17,9.90
2013,07,14,05,18,9.90
2013,07,14,05,19,9.90
2013,07,14,05,20,9.90
2013,07,14,05,21,9.90
2013,07,14,05,22,9.90
2013,07,14,05,23,9.90
2013,07,14,05,24,9.90
2013,07,14,05,25,9.90
2013,07,14,05,26,9.90
2013,07,14,05,27,9.90
2013,07,14,05,28,9.90
2013,07,14,05,29,9.90
2013,07,14,05,30,9.90
2013,07,14,05,31,9.90
2013,07,14,05,32,9.90
2013,07,14,05,33,9.80
2013,07,14,05,34,9.80
2013,07,14,05,35,9.80
2013,07,14,05,36,9.80
2013,07,14,05,37,9.80
2013,07,14,05,38,9.80
2013,07,14,05,39,9.80
2013,07,14,05,40,9.80
2013,07,14,05,41,9.80
2013,07,14,05,42,9.80
2013,07,14,05,43,9.80
2013,07,14,05,44,9.80
2013,07,14,05,45,9.80
2013,07,14,05,46,9.90
2013,07,14,05,47,9.90
2013,07,14,05,48,9.90
2013,07,14,05,49,9.90
2013,07,14,05,50,9.90
2013,07,14,05,51,9.90
2013,07,14,05,52,9.90
2013,07,14,05,53,9.90
2013,07,14,05,54,9.90
2013,07,14,05,55,9.90
2013,07,14,05,56,9.90
2013,07,14,05,57,9.90
2013,07,14,05,58,9.90
2013,07,14,05,59,9.90
2013,07,14,06,00,9.80
2013,07,14,06,01,9.80
2013,07,14,06,02,9.80
2013,07,14,06,03,9.80
2013,07,14,06,04,9.80
2013,07,14,06,05,9.70
2013,07,14,06,06,9.70
2013,07,14,06,07,9.70
2013,07,14,06,08,9.70
2013,07,14,06,09,9.70
2013,07,14,06,10,9.70
2013,07,14,06,11,9.70
2013,07,14,06,12,9.70
2013,07,14,06,13,9.70
2013,07,14,06,14,9.70
2013,07,14,06,15,9.70
2013,07,14,06,16,9.70
2013,07,14,06,17,9.70
2013,07,14,06,18,9.80
2013,07,14,06,19,9.80
2013,07,14,06,20,9.90
2013,07,14,06,21,9.90
2013,07,14,06,22,9.90
2013,07,14,06,23,9.90
2013,07,14,06,24,10.00
2013,07,14,06,25,10.10
2013,07,14,06,26,10.10
2013,07,14,06,27,10.10
2013,07,14,06,28,10.10
2013,07,14,06,29,10.10
2013,07,14,06,30,10.10
2013,07,14,06,31,10.20
2013,07,14,06,32,10.20
2013,07,14,06,33,10.20
2013,07,14,06,34,10.20
2013,07,14,06,35,10.30
2013,07,14,06,36,10.30
2013,07,14,06,37,10.30
2013,07,14,06,38,10.40
2013,07,14,06,39,10.40
2013,07,14,06,40,10.40
2013,07,14,06,41,10.40
2013,07,14,06,42,10.40
2013,07,14,06,43,10.40
2013,07,14,06,44,10.60
2013,07,14,06,45,10.60
2013,07,14,06,46,10.60
2013,07,14,06,47,10.60
2013,07,14,06,48,10.70
2013,07,14,06,49,10.70
2013,07,14,06,50,10.80
2013,07,14,06,51,10.80
2013,07,14,06,52,10.90
2013,07,14,06,53,10.90
2013,07,14,06,54,11.00
2013,07,14,06,55,11.10
2013,07,14,06,56,11.10
2013,07,14,06,57,11.20
2013,07,14,06,58,11.20
2013,07,14,06,59,11.30
2013,07,14,07,00,11.50
2013,07,14,07,01,11.60
2013,07,14,07,02,11.70
2013,07,14,07,03,11.80
2013,07,14,07,04,12.00
2013,07,14,07,05,12.10
2013,07,14,07,06,12.20
2013,07,14,07,07,12.30
2013,07,14,07,08,12.40
2013,07,14,07,09,12.50
2013,07,14,07,10,12.50
2013,07,14,07,11,12.60
2013,07,14,07,12,12.60
2013,07,14,07,13,12.70
2013,07,14,07,14,12.70
2013,07,14,07,15,12.80
2013,07,14,07,16,12.80
2013,07,14,07,17,12.90
2013,07,14,07,18,13.00
2013,07,14,07,19,13.00
2013,07,14,07,20,13.10
2013,07,14,07,21,13.20
2013,07,14,07,22,13.30
2013,07,14,07,23,13.40
2013,07,14,07,24,13.50
2013,07,14,07,25,13.60
2013,07,14,07,26,13.60
2013,07,14,07,27,13.70
2013,07,14,07,28,13.80
2013,07,14,07,29,13.80
2013,07,14,07,30,13.90
2013,07,14,07,31,14.00
2013,07,14,07,32,14.00
2013,07,14,07,33,14.10
2013,07,14,07,34,14.20
2013,07,14,07,35,14.20
2013,07,14,07,36,14.30
2013,07,14,07,37,14.40
2013,07,14,07,38,14.50
2013,07,14,07,39,14.60
2013,07,14,07,40,14.70
2013,07,14,07,41,14.80
2013,07,14,07,42,14.80
2013,07,14,07,43,14.90
2013,07,14,07,44,15.00
2013,07,14,07,45,15.00
2013,07,14,07,46,15.10
2013,07,14,07,47,15.20
2013,07,14,07,48,15.30
2013,07,14,07,49,15.30
2013,07,14,07,50,15.30
2013,07,14,07,51,15.40
2013,07,14,07,52,15.50
2013,07,14,07,53,15.50
2013,07,14,07,54,15.60
2013,07,14,07,55,15.70
2013,07,14,07,56,15.80
2013,07,14,07,57,15.80
2013,07,14,07,58,15.80
2013,07,14,07,59,15.90
2013,07,14,08,00,16.00
2013,07,14,08,01,16.10
2013,07,14,08,02,16.20
2013,07,14,08,03,16.30
2013,07,14,08,04,16.40
2013,07,14,08,05,16.40
2013,07,14,08,06,16.40
2013,07,14,08,07,16.60
2013,07,14,08,08,16.60
2013,07,14,08,09,16.60
2013,07,14,08,10,16.60
2013,07,14,08,11,16.70
2013,07,14,08,12,16.70
2013,07,14,08,13,16.70
2013,07,14,08,14,16.70
2013,07,14,08,15,16.80
2013,07,14,08,16,16.90
2013,07,14,08,17,16.90
2013,07,14,08,18,16.90
2013,07,14,08,19,17.00
2013,07,14,08,20,17.00
2013,07,14,08,21,17.00
2013,07,14,08,22,17.10
2013,07,14,08,23,17.20
2013,07,14,08,24,17.20
2013,07,14,08,25,17.20
2013,07,14,08,26,17.30
2013,07,14,08,27,17.30
2013,07,14,08,28,17.30
2013,07,14,08,29,17.30
2013,07,14,08,30,17.30
2013,07,14,08,31,17.40
2013,07,14,08,32,17.40
2013,07,14,08,33,17.40
2013,07,14,08,34,17.50
2013,07,14,08,35,17.50
2013,07,14,08,36,17.70
2013,07,14,08,37,17.80
2013,07,14,08,38,17.90
2013,07,14,08,39,18.00
2013,07,14,08,40,18.10
2013,07,14,08,41,18.20
2013,07,14,08,42,18.20
2013,07,14,08,43,18.30
2013,07,14,08,44,18.30
2013,07,14,08,45,18.30
2013,07,14,08,46,18.30
2013,07,14,08,47,18.40
2013,07,14,08,48,18.50
2013,07,14,08,49,18.60
2013,07,14,08,50,18.70
2013,07,14,08,51,18.80
2013,07,14,08,52,18.80
2013,07,14,08,53,18.90
2013,07,14,08,54,18.90
2013,07,14,08,55,19.00
2013,07,14,08,56,19.10
2013,07,14,08,57,19.20
2013,07,14,08,58,19.30
2013,07,14,08,59,19.30
2013,07,14,09,00,19.40
2013,07,14,09,01,19.50
2013,07,14,09,02,19.60
2013,07,14,09,03,19.70
2013,07,14,09,04,19.80
2013,07,14,09,05,19.80
2013,07,14,09,06,19.90
2013,07,14,09,07,19.90
2013,07,14,09,08,19.90
2013,07,14,09,09,19.80
2013,07,14,09,10,19.70
2013,07,14,09,11,19.60
2013,07,14,09,12,19.60
2013,07,14,09,13,19.60
2013,07,14,09,14,19.60
2013,07,14,09,15,19.70
2013,07,14,09,16,19.80
2013,07,14,09,17,19.80
2013,07,14,09,18,19.60
2013,07,14,09,19,19.30
2013,07,14,09,20,19.00
2013,07,14,09,21,18.90
2013,07,14,09,22,18.70
2013,07,14,09,23,18.60
2013,07,14,09,24,18.40
2013,07,14,09,25,18.20
2013,07,14,09,26,18.10
2013,07,14,09,27,18.00
2013,07,14,09,28,17.90
2013,07,14,09,29,17.90
2013,07,14,09,30,17.90
2013,07,14,09,31,17.80
2013,07,14,09,32,17.70
2013,07,14,09,33,17.50
2013,07,14,09,34,17.40
2013,07,14,09,35,17.30
2013,07,14,09,36,17.20
2013,07,14,09,37,17.20
2013,07,14,09,38,17.20
2013,07,14,09,39,17.30
2013,07,14,09,40,17.30
2013,07,14,09,41,17.30
2013,07,14,09,42,17.30
2013,07,14,09,43,17.30
2013,07,14,09,44,17.20
2013,07,14,09,45,17.20
2013,07,14,09,46,17.20
2013,07,14,09,47,17.20
2013,07,14,09,48,17.20
2013,07,14,09,49,17.20
2013,07,14,09,50,17.20
2013,07,14,09,51,17.20
2013,07,14,09,52,17.30
2013,07,14,09,53,17.30
2013,07,14,09,54,17.20
2013,07,14,09,55,17.30
2013,07,14,09,56,17.30
2013,07,14,09,57,17.30
2013,07,14,09,58,17.30
2013,07,14,09,59,17.30
2013,07,14,10,00,17.30
2013,07,14,10,01,17.30
2013,07,14,10,02,17.30
2013,07,14,10,03,17.30
2013,07,14,10,04,17.30
2013,07,14,10,05,17.40
2013,07,14,10,06,17.50
2013,07,14,10,07,17.50
2013,07,14,10,08,17.60
2013,07,14,10,09,17.60
2013,07,14,10,10,17.60
2013,07,14,10,11,17.60
2013,07,14,10,12,17.60
2013,07,14,10,13,17.70
2013,07,14,10,14,17.60
2013,07,14,10,15,17.60
2013,07,14,10,16,17.60
2013,07,14,10,17,17.60
2013,07,14,10,18,17.50
2013,07,14,10,19,17.50
2013,07,14,10,20,17.60
2013,07,14,10,21,17.70
2013,07,14,10,22,17.80
2013,07,14,10,23,17.90
2013,07,14,10,24,17.90
2013,07,14,10,25,18.00
2013,07,14,10,26,18.20
2013,07,14,10,27,18.20
2013,07,14,10,28,18.30
2013,07,14,10,29,18.30
2013,07,14,10,30,18.30
2013,07,14,10,31,18.20
2013,07,14,10,32,18.20
2013,07,14,10,33,18.20
2013,07,14,10,34,18.20
2013,07,14,10,35,18.20
2013,07,14,10,36,18.20
2013,07,14,10,37,18.20
2013,07,14,10,38,18.10
2013,07,14,10,39,18.10
2013,07,14,10,40,18.20
2013,07,14,10,41,18.20
2013,07,14,10,42,18.20
2013,07,14,10,43,18.20
2013,07,14,10,44,18.20
2013,07,14,10,45,18.40
2013,07,14,10,46,18.50
2013,07,14,10,47,18.70
2013,07,14,10,48,18.80
2013,07,14,10,49,18.80
2013,07,14,10,50,18.80
2013,07,14,10,51,18.80
2013,07,14,10,52,18.90
2013,07,14,10,53,18.90
2013,07,14,10,54,18.90
2013,07,14,10,55,18.90
2013,07,14,10,56,18.90
2013,07,14,10,57,18.90
2013,07,14,10,58,18.90
2013,07,14,10,59,18.80
2013,07,14,11,00,18.80
2013,07,14,11,01,18.80
2013,07,14,11,02,18.80
2013,07,14,11,03,18.80
2013,07,14,11,04,18.80
2013,07,14,11,05,18.90
2013,07,14,11,06,18.90
2013,07,14,11,07,18.90
2013,07,14,11,08,18.80
2013,07,14,11,09,18.70
2013,07,14,11,10,18.60
2013,07,14,11,11,18.50
2013,07,14,11,12,18.40
2013,07,14,11,13,18.40
2013,07,14,11,14,18.40
2013,07,14,11,15,18.40
2013,07,14,11,16,18.40
2013,07,14,11,17,18.40
2013,07,14,11,18,18.40
2013,07,14,11,19,18.50
2013,07,14,11,20,18.50
2013,07,14,11,21,18.60
2013,07,14,11,22,18.70
2013,07,14,11,23,18.70
2013,07,14,11,24,18.80
2013,07,14,11,25,18.90
2013,07,14,11,26,19.10
2013,07,14,11,27,19.10
2013,07,14,11,28,19.30
2013,07,14,11,29,19.40
2013,07,14,11,30,19.50
2013,07,14,11,31,19.60
2013,07,14,11,32,19.60
2013,07,14,11,33,19.50
2013,07,14,11,34,19.40
2013,07,14,11,35,19.50
2013,07,14,11,36,19.40
2013,07,14,11,37,19.30
2013,07,14,11,38,19.10
2013,07,14,11,39,18.90
2013,07,14,11,40,19.00
2013,07,14,11,41,19.10
2013,07,14,11,42,18.90
2013,07,14,11,43,18.80
2013,07,14,11,44,18.70
2013,07,14,11,45,18.70
2013,07,14,11,46,18.70
2013,07,14,11,47,18.70
2013,07,14,11,48,18.70
2013,07,14,11,49,18.60
2013,07,14,11,50,18.70
2013,07,14,11,51,18.60
2013,07,14,11,52,18.70
2013,07,14,11,53,18.70
2013,07,14,11,54,18.60
2013,07,14,11,55,18.60
2013,07,14,11,56,18.70
2013,07,14,11,57,18.80
2013,07,14,11,58,18.80
2013,07,14,11,59,18.80
2013,07,14,12,00,18.80
2013,07,14,12,01,18.80
2013,07,14,12,02,18.80
2013,07,14,12,03,18.70
2013,07,14,12,04,18.80
2013,07,14,12,05,18.80
2013,07,14,12,06,18.70
2013,07,14,12,07,18.80
2013,07,14,12,08,18.90
2013,07,14,12,09,19.00
2013,07,14,12,10,19.20
2013,07,14,12,11,19.50
2013,07,14,12,12,19.70
2013,07,14,12,13,19.80
2013,07,14,12,14,19.90
2013,07,14,12,15,20.20
2013,07,14,12,16,20.30
2013,07,14,12,17,20.30
2013,07,14,12,18,20.30
2013,07,14,12,19,20.20
2013,07,14,12,20,20.30
2013,07,14,12,21,20.40
2013,07,14,12,22,20.40
2013,07,14,12,23,20.40
2013,07,14,12,24,20.30
2013,07,14,12,25,20.10
2013,07,14,12,26,19.90
2013,07,14,12,27,19.70
2013,07,14,12,28,19.80
2013,07,14,12,29,19.70
2013,07,14,12,30,19.70
2013,07,14,12,31,19.80
2013,07,14,12,32,19.90
2013,07,14,12,33,19.80
2013,07,14,12,34,19.80
2013,07,14,12,35,19.90
2013,07,14,12,36,19.90
2013,07,14,12,37,19.90
2013,07,14,12,38,19.90
2013,07,14,12,39,19.90
2013,07,14,12,40,19.90
2013,07,14,12,41,19.90
2013,07,14,12,42,19.80
2013,07,14,12,43,19.80
2013,07,14,12,44,19.60
2013,07,14,12,45,19.60
2013,07,14,12,46,19.60
2013,07,14,12,47,19.80
2013,07,14,12,48,20.00
2013,07,14,12,49,20.10
2013,07,14,12,50,20.20
2013,07,14,12,51,20.20
2013,07,14,12,52,20.10
2013,07,14,12,53,19.90
2013,07,14,12,54,19.80
2013,07,14,12,55,19.90
2013,07,14,12,56,20.10
2013,07,14,12,57,20.10
2013,07,14,12,58,20.00
2013,07,14,12,59,19.90
2013,07,14,13,00,19.60
2013,07,14,13,01,19.50
2013,07,14,13,02,19.60
2013,07,14,13,03,19.70
2013,07,14,13,04,19.80
2013,07,14,13,05,19.70
2013,07,14,13,06,19.60
2013,07,14,13,07,19.40
2013,07,14,13,08,19.20
2013,07,14,13,09,19.20
2013,07,14,13,10,19.10
2013,07,14,13,11,18.90
2013,07,14,13,12,18.90
2013,07,14,13,13,18.80
2013,07,14,13,14,18.90
2013,07,14,13,15,19.00
2013,07,14,13,16,19.10
2013,07,14,13,17,19.30
2013,07,14,13,18,19.40
2013,07,14,13,19,19.60
2013,07,14,13,20,19.70
2013,07,14,13,21,19.80
2013,07,14,13,22,19.90
2013,07,14,13,23,19.90
2013,07,14,13,24,19.80
2013,07,14,13,25,19.70
2013,07,14,13,26,19.60
2013,07,14,13,27,19.60
2013,07,14,13,28,19.60
2013,07,14,13,29,19.70
2013,07,14,13,30,19.90
2013,07,14,13,31,19.90
2013,07,14,13,32,20.10
2013,07,14,13,33,20.10
2013,07,14,13,34,20.10
2013,07,14,13,35,20.00
2013,07,14,13,36,19.90
2013,07,14,13,37,19.90
2013,07,14,13,38,19.70
2013,07,14,13,39,19.60
2013,07,14,13,40,19.40
2013,07,14,13,41,19.30
2013,07,14,13,42,19.00
2013,07,14,13,43,18.70
2013,07,14,13,44,18.50
2013,07,14,13,45,18.40
2013,07,14,13,46,18.50
2013,07,14,13,47,18.50
2013,07,14,13,48,18.30
2013,07,14,13,49,18.10
2013,07,14,13,50,18.20
2013,07,14,13,51,18.10
2013,07,14,13,52,17.90
2013,07,14,13,53,17.70
2013,07,14,13,54,17.50
2013,07,14,13,55,17.40
2013,07,14,13,56,17.40
2013,07,14,13,57,17.20
2013,07,14,13,58,16.90
2013,07,14,13,59,16.70
2013,07,14,14,00,16.60
2013,07,14,14,01,16.40
2013,07,14,14,02,16.60
2013,07,14,14,03,16.70
2013,07,14,14,04,16.80
2013,07,14,14,05,16.70
2013,07,14,14,06,16.60
2013,07,14,14,07,16.60
2013,07,14,14,08,16.60
2013,07,14,14,09,16.50
2013,07,14,14,10,16.40
2013,07,14,14,11,16.20
2013,07,14,14,12,16.20
2013,07,14,14,13,16.10
2013,07,14,14,14,16.10
2013,07,14,14,15,15.70
2013,07,14,14,16,15.40
2013,07,14,14,17,15.30
2013,07,14,14,18,15.20
2013,07,14,14,19,15.20
2013,07,14,14,20,15.20
2013,07,14,14,21,15.20
2013,07,14,14,22,15.10
2013,07,14,14,23,15.20
2013,07,14,14,24,15.30
2013,07,14,14,25,15.20
2013,07,14,14,26,15.00
2013,07,14,14,27,14.80
2013,07,14,14,28,14.60
2013,07,14,14,29,14.60
2013,07,14,14,30,14.70
2013,07,14,14,31,14.80
2013,07,14,14,32,14.80
2013,07,14,14,33,14.80
2013,07,14,14,34,14.80
2013,07,14,14,35,14.70
2013,07,14,14,36,14.60
2013,07,14,14,37,14.40
2013,07,14,14,38,14.20
2013,07,14,14,39,14.20
2013,07,14,14,40,14.20
2013,07,14,14,41,14.20
2013,07,14,14,42,14.20
2013,07,14,14,43,14.20
2013,07,14,14,44,14.20
2013,07,14,14,45,14.20
2013,07,14,14,46,14.20
2013,07,14,14,47,14.10
2013,07,14,14,48,14.20
2013,07,14,14,49,14.30
2013,07,14,14,50,14.50
2013,07,14,14,51,14.70
2013,07,14,14,52,14.80
2013,07,14,14,53,14.90
2013,07,14,14,54,14.90
2013,07,14,14,55,14.80
2013,07,14,14,56,14.70
2013,07,14,14,57,14.50
2013,07,14,14,58,14.50
2013,07,14,14,59,14.60
2013,07,14,15,00,14.60
2013,07,14,15,01,14.80
2013,07,14,15,02,14.70
2013,07,14,15,03,14.70
2013,07,14,15,04,14.70
2013,07,14,15,05,14.80
2013,07,14,15,06,14.90
2013,07,14,15,07,15.00
2013,07,14,15,08,15.00
2013,07,14,15,09,15.00
2013,07,14,15,10,15.10
2013,07,14,15,11,15.20
2013,07,14,15,12,15.40
2013,07,14,15,13,15.60
2013,07,14,15,14,15.70
2013,07,14,15,15,15.80
2013,07,14,15,16,15.90
2013,07,14,15,17,16.00
2013,07,14,15,18,16.10
2013,07,14,15,19,16.10
2013,07,14,15,20,16.20
2013,07,14,15,21,16.40
2013,07,14,15,22,16.60
2013,07,14,15,23,16.70
2013,07,14,15,24,16.70
2013,07,14,15,25,16.80
2013,07,14,15,26,16.90
2013,07,14,15,27,17.00
2013,07,14,15,28,17.00
2013,07,14,15,29,17.10
2013,07,14,15,30,17.30
2013,07,14,15,31,17.60
2013,07,14,15,32,17.80
2013,07,14,15,33,18.00
2013,07,14,15,34,18.20
2013,07,14,15,35,18.50
2013,07,14,15,36,18.60
2013,07,14,15,37,18.80
2013,07,14,15,38,19.00
2013,07,14,15,39,19.30
2013,07,14,15,40,19.50
2013,07,14,15,41,19.70
2013,07,14,15,42,19.80
2013,07,14,15,43,19.90
2013,07,14,15,44,20.20
2013,07,14,15,45,20.30
2013,07,14,15,46,20.60
2013,07,14,15,47,20.80
2013,07,14,15,48,21.00
2013,07,14,15,49,21.10
2013,07,14,15,50,21.30
2013,07,14,15,51,21.30
2013,07,14,15,52,21.50
2013,07,14,15,53,21.70
2013,07,14,15,54,21.90
2013,07,14,15,55,22.10
2013,07,14,15,56,22.30
2013,07,14,15,57,22.60
2013,07,14,15,58,22.90
2013,07,14,15,59,23.10
2013,07,14,16,00,23.30
2013,07,14,16,01,23.50
2013,07,14,16,02,23.80
2013,07,14,16,03,24.10
2013,07,14,16,04,24.30
2013,07,14,16,05,24.60
2013,07,14,16,06,24.80
2013,07,14,16,07,25.00
2013,07,14,16,08,25.30
2013,07,14,16,09,25.50
2013,07,14,16,10,25.60
2013,07,14,16,11,25.80
2013,07,14,16,12,25.90
2013,07,14,16,13,26.00
2013,07,14,16,14,26.20
2013,07,14,16,15,26.30
2013,07,14,16,16,26.40
2013,07,14,16,17,26.40
2013,07,14,16,18,26.50
2013,07,14,16,19,26.60
2013,07,14,16,20,26.70
2013,07,14,16,21,26.80
2013,07,14,16,22,27.00
2013,07,14,16,23,27.10
2013,07,14,16,24,27.20
2013,07,14,16,25,27.20
2013,07,14,16,26,27.20
2013,07,14,16,27,27.20
2013,07,14,16,28,27.20
2013,07,14,16,29,27.20
2013,07,14,16,30,27.10
2013,07,14,16,31,27.10
2013,07,14,16,32,27.00
2013,07,14,16,33,26.90
2013,07,14,16,34,26.90
2013,07,14,16,35,26.90
2013,07,14,16,36,26.90
2013,07,14,16,37,26.80
2013,07,14,16,38,26.80
2013,07,14,16,39,26.70
2013,07,14,16,40,26.60
2013,07,14,16,41,26.60
2013,07,14,16,42,26.60
2013,07,14,16,43,26.60
2013,07,14,16,44,26.60
2013,07,14,16,45,26.80
2013,07,14,16,46,26.80
2013,07,14,16,47,26.80
2013,07,14,16,48,26.80
2013,07,14,16,49,26.90
2013,07,14,16,50,26.90
2013,07,14,16,51,27.10
2013,07,14,16,52,27.10
2013,07,14,16,53,27.10
2013,07,14,16,54,27.10
2013,07,14,16,55,27.10
2013,07,14,16,56,27.20
2013,07,14,16,57,27.20
2013,07,14,16,58,27.30
2013,07,14,16,59,27.30
2013,07,14,17,00,27.30
2013,07,14,17,01,27.20
2013,07,14,17,02,27.20
2013,07,14,17,03,27.20
2013,07,14,17,04,27.20
2013,07,14,17,05,27.30
2013,07,14,17,06,27.30
2013,07,14,17,07,27.30
2013,07,14,17,08,27.30
2013,07,14,17,09,27.30
2013,07,14,17,10,27.30
2013,07,14,17,11,27.30
2013,07,14,17,12,27.30
2013,07,14,17,13,27.30
2013,07,14,17,14,27.30
2013,07,14,17,15,27.30
2013,07,14,17,16,27.30
2013,07,14,17,17,27.30
2013,07,14,17,18,27.30
2013,07,14,17,19,27.20
2013,07,14,17,20,27.10
2013,07,14,17,21,27.10
2013,07,14,17,22,27.00
2013,07,14,17,23,26.90